Location: Brede
(50.9167°N, 0.6000°E)
Time: 02:39:09
(UTC+00:00)

Cosmos 2266 Rocket - Pass Details

Date: 08 August 2020
Orbit: 934 x 1009 km, 82.9° (Epoch: 25 September)

Event Time Altitude Azimuth Distance (km) Brightness Sun altitude
Rises 02:53:06 0° 347° (NNW) 3,746 7.6 -13.5°
Reaches altitude 10° 02:55:41 10° 344° (NNW) 2,786 6.8 -13.2°
Maximum altitude 03:01:54 56° 268° (W) 1,171 4.2 -12.5°
Drops below altitude 10° 03:07:59 10° 192° (SSW) 2,724 5.8 -11.8°
Enters shadow 03:08:12 - 192° (SSW) 2,798 5.9 -11.8°
